Stündliche Wetter Abdulkarimovo

Heute, 25 Juni, Freitag

Zeit Temperatur Niederschläge Wind Luftdruck Luftfeuchtigkeit
00:00 +18°C° 0 mm 1 m/S 723 mmHg 63%
01:00 +16°C° 0 mm 1 m/S 723 mmHg 64%
02:00 +16°C° 0 mm 1 m/S 723 mmHg 65%
03:00 +16°C° 0 mm 1 m/S 723 mmHg 67%
04:00 +15°C° 0 mm 1 m/S 722 mmHg 69%
05:00 +18°C° 0 mm 1 m/S 722 mmHg 66%
06:00 +19°C° 0 mm 2 m/S 722 mmHg 64%
07:00 +21°C° 0 mm 2 m/S 722 mmHg 62%
08:00 +24°C° 0 mm 3 m/S 722 mmHg 56%
09:00 +26°C° 0 mm 3 m/S 722 mmHg 50%
10:00 +28°C° 0 mm 3 m/S 722 mmHg 44%
11:00 +28°C° 0 mm 3 m/S 722 mmHg 44%
12:00 +29°C° 0 mm 4 m/S 722 mmHg 44%
13:00 +30°C° 0 mm 4 m/S 721 mmHg 44%
14:00 +29°C° 0 mm 4 m/S 721 mmHg 45%
15:00 +29°C° 0 mm 5 m/S 721 mmHg 47%
16:00 +29°C° 0 mm 5 m/S 721 mmHg 49%
17:00 +28°C° 0 mm 4 m/S 721 mmHg 54%
18:00 +27°C° 0 mm 4 m/S 721 mmHg 60%
19:00 +26°C° 0 mm 3 m/S 721 mmHg 66%
20:00 +24°C° 0 mm 3 m/S 721 mmHg 73%
21:00 +21°C° 0 mm 2 m/S 720 mmHg 79%
22:00 +19°C° 0 mm 2 m/S 720 mmHg 86%
23:00 +19°C° 0 mm 2 m/S 720 mmHg 88%

Morgen, 26 Juni, Samstag

Zeit Temperatur Niederschläge Wind Luftdruck Luftfeuchtigkeit
00:00 +19°C° 0 mm 2 m/S 720 mmHg 89%
01:00 +18°C° 0 mm 2 m/S 720 mmHg 91%
02:00 +18°C° 0 mm 2 m/S 720 mmHg 91%
03:00 +18°C° 0 mm 2 m/S 720 mmHg 91%
04:00 +19°C° 0 mm 1 m/S 720 mmHg 91%
05:00 +20°C° 0 mm 1 m/S 720 mmHg 84%
06:00 +22°C° 0 mm 1 m/S 721 mmHg 77%
07:00 +24°C° 0 mm 1 m/S 721 mmHg 69%
08:00 +26°C° 0 mm 1 m/S 721 mmHg 63%
09:00 +27°C° 0 mm 2 m/S 721 mmHg 56%
10:00 +29°C° 0 mm 2 m/S 721 mmHg 50%
11:00 +29°C° 0 mm 2 m/S 721 mmHg 48%
12:00 +30°C° 0 mm 2 m/S 721 mmHg 45%
13:00 +31°C° 0 mm 3 m/S 720 mmHg 43%
14:00 +30°C° 0 mm 2 m/S 720 mmHg 46%
15:00 +29°C° 0 mm 2 m/S 720 mmHg 49%
16:00 +29°C° 0 mm 1 m/S 720 mmHg 53%
17:00 +28°C° 0 mm 1 m/S 720 mmHg 57%
18:00 +27°C° 0 mm 2 m/S 720 mmHg 62%
19:00 +27°C° 0 mm 2 m/S 720 mmHg 66%
20:00 +25°C° 0.3 mm 2 m/S 720 mmHg 71%
21:00 +24°C° 0.3 mm 1 m/S 720 mmHg 77%
22:00 +22°C° 0.3 mm 1 m/S 720 mmHg 83%
23:00 +22°C° 0.1 mm 1 m/S 720 mmHg 85%

übermorgen, 27 Juni, Sonntag

Zeit Temperatur Niederschläge Wind Luftdruck Luftfeuchtigkeit
00:00 +21°C° 0.1 mm 1 m/S 720 mmHg 87%
01:00 +19°C° 0.1 mm 2 m/S 720 mmHg 89%
02:00 +19°C° 0 mm 2 m/S 720 mmHg 90%
03:00 +19°C° 0 mm 2 m/S 720 mmHg 90%
04:00 +19°C° 0 mm 2 m/S 720 mmHg 90%
05:00 +20°C° 0 mm 2 m/S 720 mmHg 86%
06:00 +23°C° 0 mm 2 m/S 720 mmHg 82%
07:00 +24°C° 0 mm 3 m/S 720 mmHg 78%
08:00 +26°C° 0 mm 3 m/S 721 mmHg 69%
09:00 +27°C° 0 mm 3 m/S 721 mmHg 60%
10:00 +29°C° 0 mm 4 m/S 721 mmHg 50%
11:00 +30°C° 0 mm 4 m/S 721 mmHg 46%
12:00 +31°C° 0 mm 3 m/S 721 mmHg 42%
13:00 +33°C° 0 mm 3 m/S 721 mmHg 38%
14:00 +31°C° 0 mm 3 m/S 721 mmHg 43%
15:00 +30°C° 0 mm 3 m/S 721 mmHg 47%
16:00 +28°C° 0 mm 2 m/S 721 mmHg 52%
17:00 +28°C° 0 mm 2 m/S 721 mmHg 54%
18:00 +28°C° 0 mm 2 m/S 721 mmHg 57%
19:00 +28°C° 0 mm 2 m/S 721 mmHg 59%
20:00 +26°C° 0 mm 2 m/S 721 mmHg 62%
21:00 +25°C° 0 mm 2 m/S 721 mmHg 64%
22:00 +24°C° 0 mm 2 m/S 721 mmHg 67%
23:00 +23°C° 0 mm 2 m/S 721 mmHg 68%

28 Juni, Montag

Zeit Temperatur Niederschläge Wind Luftdruck Luftfeuchtigkeit
00:00 +23°C° 0 mm 2 m/S 721 mmHg 69%
01:00 +23°C° 0 mm 1 m/S 721 mmHg 70%
02:00 +21°C° 0 mm 2 m/S 721 mmHg 73%
03:00 +20°C° 0 mm 2 m/S 721 mmHg 76%
04:00 +20°C° 0 mm 2 m/S 722 mmHg 79%
05:00 +21°C° 0 mm 3 m/S 722 mmHg 74%
06:00 +22°C° 0 mm 3 m/S 722 mmHg 68%
07:00 +24°C° 0 mm 3 m/S 722 mmHg 63%
08:00 +25°C° 0 mm 4 m/S 722 mmHg 60%
09:00 +27°C° 0 mm 4 m/S 723 mmHg 56%
10:00 +28°C° 0 mm 4 m/S 723 mmHg 53%
11:00 +29°C° 0 mm 3 m/S 723 mmHg 50%
12:00 +29°C° 0 mm 3 m/S 723 mmHg 47%
13:00 +30°C° 0 mm 3 m/S 723 mmHg 45%
14:00 +30°C° 0 mm 3 m/S 723 mmHg 47%
15:00 +29°C° 0 mm 3 m/S 723 mmHg 50%
16:00 +28°C° 0 mm 3 m/S 723 mmHg 52%
17:00 +28°C° 0 mm 3 m/S 723 mmHg 54%
18:00 +27°C° 0 mm 3 m/S 723 mmHg 57%
19:00 +26°C° 0 mm 4 m/S 723 mmHg 59%
20:00 +25°C° 0 mm 4 m/S 723 mmHg 61%
21:00 +25°C° 0 mm 3 m/S 723 mmHg 63%
22:00 +24°C° 0 mm 3 m/S 723 mmHg 64%
23:00 +22°C° 0 mm 3 m/S 723 mmHg 65%

29 Juni, Dienstag

Zeit Temperatur Niederschläge Wind Luftdruck Luftfeuchtigkeit
00:00 +21°C° 0 mm 3 m/S 723 mmHg 66%
01:00 +20°C° 0 mm 3 m/S 723 mmHg 67%
02:00 +20°C° 0 mm 3 m/S 723 mmHg 67%
03:00 +20°C° 0 mm 3 m/S 723 mmHg 68%
04:00 +19°C° 0 mm 3 m/S 723 mmHg 68%
05:00 +20°C° 0 mm 3 m/S 723 mmHg 67%
06:00 +20°C° 0 mm 3 m/S 724 mmHg 66%
07:00 +21°C° 0 mm 3 m/S 724 mmHg 66%
08:00 +22°C° 0 mm 4 m/S 724 mmHg 61%
09:00 +25°C° 0 mm 4 m/S 724 mmHg 56%
10:00 +26°C° 0 mm 4 m/S 724 mmHg 52%
11:00 +27°C° 0 mm 4 m/S 724 mmHg 50%
12:00 +28°C° 0 mm 4 m/S 724 mmHg 49%
13:00 +29°C° 0 mm 3 m/S 724 mmHg 47%
14:00 +29°C° 0 mm 3 m/S 724 mmHg 47%
15:00 +29°C° 0 mm 3 m/S 724 mmHg 47%
16:00 +30°C° 0 mm 2 m/S 724 mmHg 47%
17:00 +29°C° 0 mm 2 m/S 723 mmHg 49%
18:00 +28°C° 0 mm 3 m/S 723 mmHg 52%
19:00 +28°C° 0 mm 3 m/S 723 mmHg 55%
20:00 +26°C° 0 mm 2 m/S 723 mmHg 58%
21:00 +25°C° 0 mm 2 m/S 723 mmHg 61%
22:00 +23°C° 0 mm 2 m/S 723 mmHg 64%
23:00 +21°C° 0 mm 2 m/S 723 mmHg 64%

30 Juni, Mittwoch

Zeit Temperatur Niederschläge Wind Luftdruck Luftfeuchtigkeit
00:00 +20°C° 0 mm 2 m/S 723 mmHg 63%
01:00 +20°C° 0 mm 2 m/S 722 mmHg 62%
02:00 +20°C° 0 mm 1 m/S 722 mmHg 61%
03:00 +20°C° 0 mm 1 m/S 722 mmHg 60%
04:00 +19°C° 0 mm 1 m/S 723 mmHg 59%
05:00 +20°C° 0 mm 2 m/S 723 mmHg 55%
06:00 +23°C° 0 mm 2 m/S 723 mmHg 51%
07:00 +25°C° 0 mm 3 m/S 723 mmHg 47%
08:00 +27°C° 0 mm 3 m/S 723 mmHg 43%
09:00 +28°C° 0 mm 4 m/S 723 mmHg 39%
10:00 +30°C° 0 mm 4 m/S 723 mmHg 36%
11:00 +32°C° 0 mm 4 m/S 723 mmHg 35%
12:00 +33°C° 0 mm 4 m/S 723 mmHg 34%
13:00 +34°C° 0 mm 4 m/S 723 mmHg 32%
14:00 +34°C° 0 mm 4 m/S 723 mmHg 32%
15:00 +34°C° 0 mm 3 m/S 723 mmHg 32%
16:00 +34°C° 0 mm 3 m/S 723 mmHg 32%
17:00 +33°C° 0 mm 3 m/S 722 mmHg 36%
18:00 +31°C° 0 mm 3 m/S 722 mmHg 41%
19:00 +30°C° 0 mm 3 m/S 722 mmHg 45%
20:00 +28°C° 0 mm 3 m/S 722 mmHg 49%
21:00 +26°C° 0 mm 2 m/S 721 mmHg 52%
22:00 +24°C° 0 mm 2 m/S 721 mmHg 55%
23:00 +23°C° 0 mm 2 m/S 721 mmHg 57%
Mehr zeigen

Wir brauchen deine Erlaubnis

Meteoprog und unser Service Anbieter werden persönliche Daten aufbewahren, so wie Cookies, Geräte Bezeichnung oder ähnliche Technologien von deinem Gerät und Prozess, so wie Persönliche Daten Inhalte und Werbungen, genauso wie social Media und den Verkehr zu analysieren.

  • Aufbewahrung und/oder Zugang zu deiner Geräte Informationen.

    Cookies, Geräte Bezeichnung oder andere Informationen, können aufbewahrt oder Zugang zu deinem Gerät erhalten, für den Grund, der oben angegeben wird.

  • Personalisierte Werbung und Inhalte, Messungen, Einblick in das Publikum und Produkt Entwicklung.

    Werbungen und Inhalte können personalisiert werden, basierend auf ein Profil. Mehr Daten können besser personalisierte Werbungen und Inhalte hinzufügen. Werbung und Inhalte können gezeigt und gemessen werden. Einblicke über das Publikum, welche die Werbung gesehen haben und den Inhalt, können abgeleitet werden. So wie Daten können genutzt werden, um es zu verbessern oder die Benutzer Erfahrung zu verbessern das System und die Software.

Wenn du “Ich stimme zu” klickst, erlaubst du uns, die Cookies zu benutzen die Geräte Bezeichnung, den Web oder ähnliche Technologien zu benutzen. Deine Settings, können in deinem Gerät bei deinem Browser geändert werden.

Für den bestimmten Zweck, berechtigten Interessen beruhen darauf, mehr als auf den Inhalt. Du kannst mehr darüber in unseren Privaten und Cookie Politik lesen.